[[{"header":{"parameterUnit":"m.s-1","parameterCategory":1,"la1":30.2991,"la2":30.254,"lo1":-89.0895,"lo2":-89.0444,"dy":0.0017,"dx":0.0017,"nx":28,"ny":28,"refTime":"2023-09-14T09:00:00:Z","depth":0,"parameterNumber":2,"parameterNumberName":"U-component_of_WINDS"},"data":[0,0,0,0,0,0,0,0,0,0,0,0,0,0,0,0,0,0,0,0,0,0,0,0,0,0,0,0,0,0,0,0,0,0,0,0,0,0,0,0,0,0,0,0,0,0,0,0,0,0,0,0,0,0,0,0,0,0,0.6733,0.6734,0,0.6852,0.6854,0.6855,0.6936,0.6937,0.6937,0.6938,0.7059,0.7062,0.7064,0,0,0,0,0,0,0,0,0,0,0,0,0,0.6575,0.6578,0.6733,0.6735,0.6736,0.6852,0.6854,0.6856,0.6936,0.6937,0.6937,0.6938,0.7058,0.7061,0.7065,0,0,0,0,0,0,0,0,0,0,0,0,0,0.6664,0.6579,0.6733,0.679,0.6797,0.6852,0.6854,0.6856,0.6936,0.6937,0.6938,0.6938,0.7057,0.7061,0.7065,0.7072,0,0,0.7077,0.7079,0,0,0,0,0,0,0,0,0.6659,0.667,0.678,0.6786,0.6794,0.688,0.6843,0.6928,0.6936,0.6883,0.6938,0.6939,0.6999,0.7008,0.7028,0.7078,0.7083,0.7078,0.708,0.7082,0.7083,0,0,0,0,0,0,0,0.6653,0.6665,0.678,0.6782,0.679,0.681,0.6824,0.6859,0.6934,0.6888,0.6894,0.6907,0.7003,0.7024,0.7032,0.7085,0.7078,0.7081,0.7084,0.7085,0.7148,0.7148,0,0,0,0,0,0,0.6637,0.6659,0.6777,0.6784,0.6727,0.6812,0.6828,0.6852,0.6934,0.6948,0.6906,0.691,0.7017,0.7027,0.7036,0.7051,0.7082,0.7086,0.7088,0.7149,0.7148,0.7147,0,0,0,0,0,0,0.6634,0.6647,0.6772,0.6723,0.6741,0.6814,0.684,0.6853,0.6875,0.6948,0.6962,0.6914,0.7018,0.703,0.7063,0.7056,0.7087,0.7091,0.715,0.7149,0.7148,0.708,0,0,0,0,0,0,0.6629,0.6645,0.6649,0.6723,0.6743,0.6796,0.684,0.6855,0.6882,0.6888,0.6959,0.6972,0.7019,0.7057,0.7067,0.7062,0.7094,0.7151,0.715,0.7148,0.7083,0.7076,0.7071,0,0,0,0,0,0.6623,0.6624,0.6648,0.6662,0.6749,0.6796,0.6807,0.6862,0.6881,0.6885,0.6932,0.697,0.7055,0.7059,0.7072,0.7068,0.7152,0.715,0.7148,0.7085,0.7078,0.7071,0,0,0,0,0,0,0.6546,0.6635,0.6663,0.6688,0.6734,0.6809,0.6816,0.6852,0.6893,0.6897,0.6964,0.6979,0.7005,0.704,0.7043,0.708,0.7108,0.7109,0.7056,0.7049,0.7043,0.7034,0.7098,0,0,0,0,0,0.6532,0.6563,0.6639,0.6654,0.6676,0.6742,0.6764,0.6803,0.6853,0.6872,0.6922,0.6969,0.7007,0.703,0.7069,0.7089,0.7106,0.7092,0.7086,0.7081,0.7081,0.7095,0.709,0.7142,0.7142,0.7142,0,0,0.6504,0.6556,0.6571,0.664,0.668,0.6711,0.6757,0.6787,0.6811,0.6877,0.6911,0.6949,0.7006,0.7032,0.7047,0.7063,0.707,0.7079,0.7074,0.7077,0.7093,0.7087,0.7083,0.7141,0.7141,0.7141,0,0,0.6467,0.651,0.6527,0.6567,0.6628,0.6672,0.6676,0.6747,0.6775,0.681,0.6861,0.689,0.6953,0.6992,0.702,0.7,0.7036,0.7011,0.6979,0.6992,0.6988,0.6984,0.6977,0.6974,0.701,0.701,0.701,0,0.6424,0.6472,0.6532,0.6559,0.6588,0.6651,0.6669,0.6705,0.6774,0.6793,0.681,0.6892,0.6934,0.6971,0.6966,0.6987,0.6994,0.7002,0.6983,0.6981,0.6978,0.6973,0.697,0.7007,0.7007,0.7007,0.7008,0,0.6416,0.6449,0.6456,0.6522,0.6552,0.6575,0.6638,0.6662,0.6698,0.674,0.6776,0.683,0.6881,0.6893,0.6928,0.6935,0.6943,0.6971,0.7,0.6969,0.6965,0.6963,0.7002,0.7003,0.7004,0.7005,0,0,0.6333,0.6434,0.6435,0.6466,0.6539,0.6565,0.6591,0.6642,0.6661,0.6707,0.6731,0.6784,0.6811,0.6842,0.6883,0.6894,0.6876,0.6921,0.6923,0.6911,0.6887,0.6865,0.6862,0.6901,0.69,0.69,0.6882,0,0.6307,0.6357,0.6413,0.6444,0.6475,0.6535,0.6558,0.6605,0.6646,0.6679,0.6724,0.6761,0.6793,0.6813,0.6827,0.6875,0.6872,0.6877,0.6923,0.6924,0.6906,0.6859,0.6836,0.6817,0.6881,0.6881,0.6881,0,0.6283,0.6328,0.6362,0.6432,0.6448,0.6467,0.6519,0.6549,0.6604,0.6633,0.6669,0.6713,0.6744,0.677,0.6814,0.6817,0.6839,0.6866,0.6867,0.6872,0.69,0.6864,0.6812,0.6808,0.6878,0.6879,0.6879,0,0.6219,0.6287,0.6317,0.6342,0.6425,0.6438,0.6473,0.6529,0.6556,0.6601,0.662,0.6667,0.6693,0.673,0.6786,0.68,0.6824,0.6855,0.6849,0.6847,0.685,0.6849,0.6801,0.6865,0.6865,0.6865,0.6866,0,0.6184,0.6203,0.629,0.6307,0.633,0.6394,0.6415,0.6456,0.6505,0.6533,0.6588,0.6612,0.6685,0.6718,0.6762,0.6792,0.6804,0.6828,0.6839,0.6823,0.6819,0.6838,0.684,0.6865,0.6865,0.6865,0.6865,0,0.6116,0.6175,0.6211,0.6287,0.6307,0.632,0.6386,0.6406,0.6451,0.6484,0.6496,0.6566,0.6608,0.6668,0.6728,0.6758,0.6781,0.68,0.6763,0.6769,0.676,0.676,0.6721,0.6719,0.6785,0.6784,0.6784,0,0.6089,0.6105,0.6183,0.6206,0.6239,0.6275,0.6303,0.6367,0.6395,0.6459,0.6472,0.6518,0.6559,0.6623,0.668,0.6726,0.6746,0.673,0.6753,0.6737,0.6746,0.6744,0.6746,0.6723,0.6722,0.6721,0.6721,0,0.6036,0.6065,0.6104,0.6153,0.6186,0.6228,0.6273,0.6288,0.6362,0.639,0.6434,0.6465,0.6528,0.6573,0.6628,0.6665,0.6705,0.6713,0.6714,0.6697,0.6674,0.6686,0.6746,0.6713,0.6714,0.6714,0.6715,0.6715,0.5987,0.6005,0.6063,0.6105,0.6145,0.6186,0.6209,0.6257,0.6295,0.6351,0.6387,0.6429,0.6485,0.6563,0.6598,0.6632,0.6649,0.665,0.665,0.665,0.6644,0.667,0.6642,0.6643,0.6643,0.6643,0.6643,0,0.5937,0.5978,0.6016,0.6077,0.611,0.6146,0.6198,0.6223,0.626,0.6309,0.6348,0.6399,0.6445,0.6505,0.6555,0.657,0.659,0.6581,0.658,0.6588,0.6626,0.662,0.6564,0.6564,0.6564,0.6564,0.6564,0.6565,0.5914,0.5945,0.5981,0.6033,0.6075,0.6117,0.6143,0.6181,0.6221,0.6276,0.6314,0.6353,0.6407,0.6461,0.6505,0.6521,0.6537,0.6522,0.6544,0.6578,0.6585,0.6592,0.6587,0.6525,0.6525,0.6503,0.6503,0.6503]},{"header":{"parameterUnit":"m.s-1","parameterCategory":1,"la1":30.2991,"la2":30.254,"lo1":-89.0895,"lo2":-89.0444,"dy":0.0017,"dx":0.0017,"nx":28,"ny":28,"refTime":"2023-09-14T09:00:00:Z","depth":0,"parameterNumber":3,"parameterNumberName":"V-component_of_WINDS"},"data":[0,0,0,0,0,0,0,0,0,0,0,0,0,0,0,0,0,0,0,0,0,0,0,0,0,0,0,0,0,0,0,0,0,0,0,0,0,0,0,0,0,0,0,0,0,0,0,0,0,0,0,0,0,0,0,0,0,0,-0.8218,-0.822,0,-0.8364,-0.8366,-0.8367,-0.8424,-0.8424,-0.8423,-0.8423,-0.8572,-0.8577,-0.8581,0,0,0,0,0,0,0,0,0,0,0,0,0,-0.799,-0.7994,-0.8218,-0.822,-0.8222,-0.8364,-0.8366,-0.8368,-0.8424,-0.8424,-0.8423,-0.8423,-0.8571,-0.8576,-0.8581,0,0,0,0,0,0,0,0,0,0,0,0,0,-0.8107,-0.7995,-0.8218,-0.8267,-0.8273,-0.8363,-0.8366,-0.8368,-0.8424,-0.8424,-0.8423,-0.8423,-0.8569,-0.8576,-0.8582,-0.8634,0,0,-0.8602,-0.8605,0,0,0,0,0,0,0,0,-0.8101,-0.8116,-0.8258,-0.8264,-0.8271,-0.8375,-0.834,-0.8457,-0.8424,-0.8367,-0.8423,-0.8422,-0.8507,-0.8519,-0.8547,-0.8641,-0.8647,-0.8602,-0.8606,-0.8609,-0.8611,0,0,0,0,0,0,0,-0.8092,-0.811,-0.8276,-0.826,-0.8268,-0.8282,-0.8298,-0.8362,-0.8439,-0.8372,-0.8376,-0.8393,-0.8511,-0.8541,-0.8551,-0.865,-0.8602,-0.8608,-0.8612,-0.8615,-0.8794,-0.8795,0,0,0,0,0,0,-0.8076,-0.8103,-0.8271,-0.828,-0.8182,-0.8287,-0.8305,-0.8342,-0.8438,-0.8452,-0.8393,-0.8395,-0.853,-0.8544,-0.8557,-0.8624,-0.8609,-0.8615,-0.8619,-0.8793,-0.8794,-0.8795,0,0,0,0,0,0,-0.8071,-0.8091,-0.8265,-0.8193,-0.8216,-0.8291,-0.8333,-0.8345,-0.8376,-0.8454,-0.8468,-0.841,-0.853,-0.8548,-0.8615,-0.863,-0.8618,-0.8624,-0.8792,-0.8793,-0.8795,-0.8759,0,0,0,0,0,0,-0.8064,-0.8088,-0.8109,-0.8193,-0.822,-0.832,-0.8334,-0.8349,-0.8387,-0.8391,-0.8474,-0.8487,-0.8531,-0.8605,-0.8621,-0.8639,-0.8629,-0.8791,-0.8793,-0.8794,-0.8759,-0.8759,-0.8759,0,0,0,0,0,-0.8056,-0.8093,-0.8109,-0.8129,-0.8247,-0.8321,-0.8337,-0.8386,-0.8388,-0.8409,-0.846,-0.8484,-0.8626,-0.8611,-0.863,-0.865,-0.879,-0.8792,-0.8794,-0.8759,-0.8759,-0.8759,0,0,0,0,0,0,-0.8009,-0.8105,-0.8124,-0.819,-0.8247,-0.833,-0.8359,-0.8385,-0.8442,-0.8443,-0.8503,-0.8521,-0.8583,-0.8624,-0.8605,-0.8706,-0.871,-0.8716,-0.8677,-0.8678,-0.8677,-0.8666,-0.8635,0,0,0,0,0,-0.8006,-0.8058,-0.8139,-0.8189,-0.8217,-0.8283,-0.8317,-0.8351,-0.8412,-0.8437,-0.8492,-0.8551,-0.8609,-0.8645,-0.8703,-0.8766,-0.8785,-0.8789,-0.8789,-0.8788,-0.8793,-0.8829,-0.8832,-0.8801,-0.8801,-0.8801,0,0,-0.8001,-0.806,-0.8089,-0.8181,-0.823,-0.8282,-0.8303,-0.8358,-0.8398,-0.8445,-0.8511,-0.8554,-0.8624,-0.8689,-0.872,-0.8724,-0.8805,-0.8791,-0.879,-0.8795,-0.8831,-0.8834,-0.8837,-0.8803,-0.8802,-0.8802,0,0,-0.8018,-0.8068,-0.8115,-0.8163,-0.8236,-0.828,-0.8291,-0.8371,-0.8401,-0.8469,-0.8506,-0.8554,-0.8652,-0.8701,-0.8738,-0.8774,-0.8799,-0.8792,-0.8791,-0.8825,-0.8828,-0.883,-0.8843,-0.8847,-0.8796,-0.8796,-0.8795,0,-0.8002,-0.8083,-0.8136,-0.8189,-0.8229,-0.8275,-0.8323,-0.8367,-0.8455,-0.8481,-0.8485,-0.8609,-0.8659,-0.8736,-0.8745,-0.8774,-0.8789,-0.8782,-0.8823,-0.8826,-0.8829,-0.8842,-0.8847,-0.8794,-0.8794,-0.8794,-0.8795,0,-0.8061,-0.8116,-0.8146,-0.8229,-0.8272,-0.8323,-0.8383,-0.8421,-0.845,-0.8494,-0.8562,-0.8624,-0.8695,-0.8716,-0.8746,-0.8798,-0.8798,-0.8811,-0.8817,-0.883,-0.8843,-0.8848,-0.8792,-0.8792,-0.8793,-0.8793,0,0,-0.8052,-0.8164,-0.8174,-0.8213,-0.8297,-0.8341,-0.8393,-0.8463,-0.8494,-0.8553,-0.8599,-0.8681,-0.8694,-0.8737,-0.8773,-0.8803,-0.8828,-0.8813,-0.8816,-0.8814,-0.8889,-0.8878,-0.8883,-0.8846,-0.8847,-0.8848,-0.8883,0,-0.808,-0.8176,-0.8225,-0.83,-0.8352,-0.8397,-0.8443,-0.8499,-0.8541,-0.8592,-0.8639,-0.8696,-0.8709,-0.8735,-0.8768,-0.8818,-0.8844,-0.8816,-0.8889,-0.8891,-0.8869,-0.889,-0.8879,-0.8909,-0.8889,-0.889,-0.889,0,-0.8126,-0.8185,-0.8265,-0.8343,-0.8367,-0.8407,-0.8475,-0.8523,-0.8588,-0.8616,-0.8664,-0.8699,-0.8757,-0.8758,-0.8838,-0.8818,-0.8851,-0.888,-0.8883,-0.8891,-0.8891,-0.8899,-0.892,-0.8924,-0.8899,-0.8898,-0.8898,0,-0.8111,-0.821,-0.8271,-0.8303,-0.8396,-0.8423,-0.8463,-0.8528,-0.8566,-0.8626,-0.8652,-0.8717,-0.8753,-0.8803,-0.8855,-0.8851,-0.893,-0.8936,-0.8955,-0.8954,-0.897,-0.8968,-0.8996,-0.8991,-0.8991,-0.8991,-0.8991,0,-0.8138,-0.8185,-0.8266,-0.8303,-0.8357,-0.8414,-0.8466,-0.851,-0.8567,-0.8614,-0.8656,-0.8699,-0.8766,-0.8817,-0.8859,-0.8919,-0.8935,-0.8959,-0.897,-0.8956,-0.8952,-0.8977,-0.8976,-0.8992,-0.8992,-0.8992,-0.8991,0,-0.813,-0.8186,-0.8255,-0.8338,-0.8359,-0.8396,-0.8466,-0.8505,-0.8549,-0.8608,-0.8625,-0.8695,-0.8757,-0.8815,-0.8898,-0.8926,-0.8987,-0.9,-0.8965,-0.897,-0.8987,-0.8984,-0.9032,-0.9041,-0.903,-0.903,-0.903,0,-0.8143,-0.818,-0.8266,-0.8301,-0.834,-0.8395,-0.8434,-0.8492,-0.8531,-0.8609,-0.8638,-0.8704,-0.876,-0.8858,-0.8916,-0.8981,-0.8996,-0.9008,-0.9005,-0.899,-0.8996,-0.8993,-0.8997,-0.9007,-0.9007,-0.9007,-0.9007,0,-0.816,-0.8186,-0.8241,-0.8307,-0.8353,-0.8407,-0.8463,-0.8489,-0.8557,-0.8599,-0.8664,-0.8707,-0.8793,-0.8858,-0.8929,-0.8971,-0.9,-0.9007,-0.9015,-0.9001,-0.8978,-0.8991,-0.8963,-0.9006,-0.9006,-0.9006,-0.9006,-0.9006,-0.8163,-0.8198,-0.8264,-0.8325,-0.8373,-0.8424,-0.8464,-0.8514,-0.8568,-0.8642,-0.8673,-0.8739,-0.8804,-0.8902,-0.8944,-0.8996,-0.9002,-0.9014,-0.9017,-0.9018,-0.9016,-0.897,-0.9009,-0.901,-0.901,-0.901,-0.901,0,-0.8182,-0.8227,-0.8282,-0.8358,-0.8406,-0.843,-0.8493,-0.8531,-0.8589,-0.8647,-0.8701,-0.8775,-0.8839,-0.8902,-0.897,-0.8999,-0.9015,-0.9015,-0.9013,-0.9022,-0.9007,-0.8993,-0.9002,-0.9002,-0.9002,-0.9002,-0.9002,-0.9002,-0.8197,-0.8258,-0.8292,-0.8377,-0.8422,-0.8487,-0.8521,-0.8568,-0.8615,-0.8696,-0.8749,-0.879,-0.8851,-0.8923,-0.8982,-0.9,-0.9022,-0.9019,-0.9039,-0.9023,-0.9023,-0.9024,-0.9011,-0.9023,-0.9023,-0.9051,-0.9051,-0.9051]}]]